STARLINK-36600, 67623

Orbit data source: Space-Track

STARLINK-36600, 67623 is a payload satellite owned by SpaceX/Seattle (US) in LEO that was launched on Fri, 30 Jan 2026 UTC via an FALCON 9 launch vehicle from the Air Force Eastern Test Range (AFETR). Payload-class satellites include a variety of spacecraft equipped with specific instruments for various scientific and technological missions. These include communications satellites like Starlink; space stations such as the ISS; scientific satellites like the Hubble; Earth observation satellites from companies like Planet Labs, Umbra, and HawkEye 360; GPS; miniature CubeSats for education and research; and military/defense satellites.

Loading next visibility...
Identifier
67623, 2026-020G
Orbit
LEO
Country
Flag of USUS
Related business
Manufacturer
SpaceX/Seattle
Mission
Operational spacecraft
Bus & Motor
STARLINK V2MO, Unknown motor
Mass
575 kg wet, ~530 kg dry
Launch date (UTC)
2026-01-30 (1 week ago)
Launch vehicle
FALCON 9
Launch site
Air Force Eastern Test Range (AFETR)
Object type
Payload
Rocket body
Debris
Shape & HBR
Unknown
Radar Cross Section
RCS unknown

Expand to show TLE details & history
Last TLE update: 9 hours ago

TLE from 9 hours ago
0 STARLINK-36600
1 67623U 26020G   26037.58335648 -.01723871  00000-0 -60727-2 0  9999
2 67623  43.0002 331.5507 0001897 261.5759  76.1805 15.90941140  2394
Epoch: 2026-02-06T14:00Z
TLE epoch observation values (Epoch: 2026-02-06T14:00:01.999Z)
Latitude
-15.08805°
Longitude
-31.88334°
Altitude
302.268 km
Speed
7.728 km/s
True Right ascension
20h 59m 22s
True Declination
-14° 59' 45"
Sunlit
Object was in daylight at epoch
Visualization orbit readout
Latitude
Unknown
Longitude
Unknown
Altitude
Unknown
Speed
Unknown
Apparent Right ascension
Unknown
Apparent Declination
Unknown
Sunlit
N/A
Visualization observer readout
Local Sidereal Time
00:46:31
Azimuth
Unknown
Elevation
Unknown
Doppler factor
Unknown
Orbital elements
Apogee altitude
302.914 km
Perigee altitude
300.379 km
Semi-major axis
6,679.783 km
Eccentricity
0.00019
Inclination
43.0002°
RAAN
331.5507°
Arg. of periapsis
261.5759°
True anomaly
76.20161°
Mean anomaly
76.1805°
Eccentric anomaly
76.19105°
Mean motion
3.97557 °/min
Orbital period
90.55 mins
BSTAR
-0.0060727
Loading maneuver chart data...
Computing Atmospheric mass density...
Loading historical data...
Loading historical data...
Loading historical data...
Loading historical data...
Loading historical data...
Loading historical data...
Loading historical data...

Documentation

Showing up to 5 results
|